Location: Unspecified
(48.5539°N, 71.6350°W)
Time: 23:13:37
(UTC-04:00)

ISS - All Passes

Search period start: 16 October 2019 00:00
Search period end: 26 October 2019 00:00
Orbit: 411 x 421 km, 51.6° (Epoch: 16 October)

Date Brightness Start Highest point End Pass type
(mag) Time Alt. Az. Time Alt. Az. Time Alt. Az.
16 Oct - 10:16:48 10° SW 10:19:57 40° SSE 10:23:08 10° ENE daylight
16 Oct - 11:53:19 10° W 11:56:38 60° NNW 11:59:57 10° ENE daylight
16 Oct - 13:30:24 10° WNW 13:33:40 50° N 13:36:56 10° E daylight
16 Oct - 15:07:12 10° WNW 15:10:31 67° SSW 15:13:49 10° ESE daylight
16 Oct - 16:44:58 10° WSW 16:46:45 14° SW 16:48:30 10° SSW daylight
17 Oct - 09:28:38 10° SSW 09:31:31 26° SE 09:34:24 10° E daylight
17 Oct - 11:04:40 10° WSW 11:08:02 76° NNW 11:11:23 10° ENE daylight
17 Oct - 12:41:46 10° WNW 12:45:01 47° N 12:48:16 10° ENE daylight
17 Oct - 14:18:37 10° WNW 14:21:58 88° NNE 14:25:18 10° ESE daylight
17 Oct - 15:55:47 10° W 15:58:23 21° SW 16:00:58 10° SSE daylight
18 Oct - 08:40:48 10° S 08:43:07 18° SE 08:45:28 10° E daylight
18 Oct - 10:16:06 10° WSW 10:19:28 81° SSE 10:22:49 10° ENE daylight
18 Oct - 11:53:06 10° W 11:56:22 48° N 11:59:38 10° ENE daylight
18 Oct - 13:30:02 10° WNW 13:33:23 68° NNE 13:36:42 10° E daylight
18 Oct - 15:06:57 10° W 15:09:58 32° SW 15:12:58 10° SSE daylight
19 Oct - 07:53:40 10° SSE 07:54:46 11° SE 07:55:53 10° ESE daylight
19 Oct - 09:27:38 10° SW 09:30:56 56° SSE 09:34:13 10° ENE daylight
19 Oct - 11:04:25 10° W 11:07:43 52° N 11:11:01 10° ENE daylight
19 Oct - 12:41:27 10° WNW 12:44:46 55° NNE 12:48:03 10° E daylight
19 Oct - 14:18:15 10° WNW 14:21:30 48° SSW 14:24:43 10° SE daylight
20 Oct - 08:39:18 10° SW 08:42:26 37° SSE 08:45:34 10° ENE daylight
20 Oct - 10:15:45 10° W 10:19:05 62° NNW 10:22:25 10° ENE daylight
20 Oct - 11:52:50 10° WNW 11:56:06 49° N 11:59:23 10° E daylight
20 Oct - 13:29:38 10° WNW 13:32:59 71° SSW 13:36:17 10° ESE daylight
20 Oct - 15:07:17 10° W 15:09:14 15° SW 15:11:11 10° S daylight
21 Oct - 07:51:11 10° SSW 07:54:00 25° SE 07:56:48 10° E daylight
21 Oct - 09:27:07 10° WSW 09:30:29 79° NNW 09:33:50 10° ENE daylight
21 Oct - 11:04:11 10° WNW 11:07:27 47° N 11:10:43 10° ENE daylight
21 Oct - 12:41:03 10° WNW 12:44:25 84° NNE 12:47:46 10° ESE daylight
21 Oct - 14:18:11 10° W 14:20:52 22° SW 14:23:32 10° SSE daylight
22 Oct - 07:03:23 10° S 07:05:35 17° SE 07:07:49 10° E daylight
22 Oct - 08:38:33 10° WSW 08:41:55 77° SSE 08:45:16 10° ENE daylight
22 Oct - 10:15:31 10° W 10:18:48 48° N 10:22:04 10° ENE daylight
22 Oct - 11:52:29 10° WNW 11:55:50 65° NNE 11:59:08 10° E daylight
22 Oct - 13:29:22 10° W 13:32:26 34° SW 13:35:29 10° SSE daylight
23 Oct - 06:16:34 10° SE 06:17:15 10° SE 06:17:57 10° ESE visible
23 Oct - 07:50:05 10° SW 07:53:22 53° SSE 07:56:40 10° ENE daylight
23 Oct - 09:26:50 10° W 09:30:09 54° N 09:33:27 10° ENE daylight
23 Oct - 11:03:53 10° WNW 11:07:11 54° N 11:10:29 10° E daylight
23 Oct - 12:40:41 10° WNW 12:43:57 51° SSW 12:47:12 10° SE daylight
24 Oct - 07:01:47 10° SSW 07:04:53 35° SE 07:08:00 10° E daylight
24 Oct - 08:38:09 10° W 08:41:31 64° NNW 08:44:51 10° ENE daylight
24 Oct - 10:15:15 10° WNW 10:18:32 49° N 10:21:48 10° E daylight
24 Oct - 11:52:04 10° WNW 11:55:25 75° SSW 11:58:45 10° ESE daylight
24 Oct - 13:29:35 10° W 13:31:43 16° SW 13:33:49 10° S daylight
25 Oct - 06:13:42 10° SSW 06:16:27 23° SE 06:19:12 10° E visible
25 Oct - 07:49:32 10° WSW 07:52:55 83° NNW 07:56:16 10° ENE daylight
25 Oct - 09:26:36 10° WNW 09:29:53 47° N 09:33:08 10° ENE daylight
25 Oct - 11:03:29 10° WNW 11:06:51 81° NNE 11:10:12 10° ESE daylight
25 Oct - 12:40:33 10° W 12:43:19 24° SW 12:46:04 10° SSE daylight
